Starlink 36064

operational
NORAD ID: 66899 Int'l Des: 2025-283 Owner: SPXS Country: US Constellation: starlink
LEOCIRCULAR

Über Starlink 36064

Beschreibung wird geladen...

Live-Position

3D-Globus wird geladen...

Nächste Überflüge

Höhenverlauf

Altitude vs Time

uPlot chart will show altitude changes over time

Zweizeiliger Elementsatz

1 66899U 25283X 25347.58336806 -.01354911 53897-3 -37061-2 0 9998
2 66899 53.1543 69.5948 0001115 50.8433 352.0482 15.93443861 2508
Epoch: 13. Dez. 2025 • Age: 19 hours

Aktueller Status

Höhe 298.4 km
Geschwindigkeit 7.73 km/s
Subsatellitenpunkt 17.57°N, 20.38°E
Startdatum 4. Dez. 2025
Alter 9 days
Typ internet

Technische Details

Klassifizierung Payload
Masse 575.00 kg
Trockenmasse 530.00 kg
Gesamtmasse 575.00 kg
Länge 0.30 m
Durchmesser 4.10 m
Spannweite 29.00 m
Form Box + pan
Hersteller SPXS
Bus-Typ Starlink V2MO
Phasenstatus In Orbit
Besitzer/Staat SPXS/US

Große Konstellationen

Loading constellations...